Regional Weather Roundup
Issued by NWS Jackson, KY

Home | Current Version | Previous Version | Graphics & Text | Print | Product List | Glossary On
Versions: 1 2 3 4 5 6 7 8 9 10 11 12 13 14 15 16 17 18 19 20 21 22 23 24 25 26 27 28 29 30 31 32 33 34 35 36 37 38 39 40 41 42 43 44 45 46 47 48 49 50
000
ASUS43 KJKL 190410
RWRJKL

EAST KENTUCKY HOURLY WEATHER ROUNDUP
NATIONAL WEATHER SERVICE JACKSON KY
1100 PM EST THU DEC 18 2014

NOTE: "FAIR" INDICATES FEW OR NO CLOUDS BELOW 12,000 FEET WITH
NO SIGNIFICANT WEATHER AND/OR OBSTRUCTIONS TO VISIBILITY.

* THESE REPORTS ARE NOT UNDER NWS QUALITY CONTROL AND MAY NOT
  REPORT WEATHER SUCH AS PRECIPITATION AND FOG.

KYZ079-080-083-085-087-088-110-112-115-119-120-190500
...EASTERN KENTUCKY...

CITY           SKY/WX    TMP DP  RH WIND       PRES   REMARKS
JACKSON        CLOUDY    31  24  75 NW3       30.19R
LONDON         CLOUDY    34  25  69 NW3       30.20S
SOMERSET*      CLOUDY    32  27  80 CALM      30.23S
MONTICELLO*    CLOUDY    35  28  76 N5        30.25R WCI  31
MIDDLESBORO*   CLOUDY    37  29  73 CALM      30.19R
HARLAN APT*    CLOUDY    36  28  75 CALM      30.18R
BLACK MTN*       N/A     27  21  80 CALM        N/A
PIKEVILLE APT* MOCLDY    30  25  80 NW5       30.19R WCI  25
BIG SANDY*     MOCLDY    31  25  78 CALM      30.20R
MOREHEAD APT*  CLOUDY    28  23  80 CALM      30.25R
$$

KYZ035-036-041-042-044-050-067-078-099-190500
...CENTRAL KENTUCKY...

CITY           SKY/WX    TMP DP  RH WIND       PRES   REMARKS
MT STERLING*   CLOUDY    30  27  86 CALM      30.24R
FLEMING/MASON* CLOUDY    27  21  80 NW3       30.25R
DANVILLE*      CLOUDY    32  27  80 N3        30.24R
RICHMOND*      CLOUDY    30  25  80 CALM      30.22S
LEXINGTON      CLOUDY    30  24  78 N5        30.23R WCI  25
FRANKFORT      CLOUDY    30  23  75 CALM      30.24R
$$

KYZ091>093-OHZ055-061-077-WVZ005-015-034-035-042-190500
...SOUTHERN OHIO/WEST VIRGINIA...

CITY           SKY/WX    TMP DP  RH WIND       PRES   REMARKS
COVINGTON      CLOUDY    29  20  69 N3        30.24R
COLUMBUS       CLOUDY    28  22  78 W6        30.21S WCI  22
DAYTON         CLOUDY    28  22  78 W5        30.23R WCI  23
WILMINGTON     CLOUDY    27  20  75 NW6       30.22R WCI  20
HUNTINGTON     CLOUDY    30  22  72 N3        30.22R
CHARLESTON     CLOUDY    30  22  72 CALM      30.20S
PINEVILLE*     CLOUDY    33  30  90 MISG      30.19R
BECKLEY        CLOUDY    28  22  78 N6        30.10R WCI  22
BLUEFIELD      MOCLDY    31  22  69 W7        30.09R WCI  24
$$

VAZ002-007-008-TNZ017-027-036-066-071-190500
...SOUTHWEST VIRGINIA/EAST TENNESSEE...

CITY           SKY/WX    TMP DP  RH WIND       PRES   REMARKS
WISE*          CLOUDY    32  25  74 N5        30.12R WCI  27
JONESVILLE*    CLOUDY    37  27  65 CALM      30.18S
ABINGDON*      CLOUDY    39  28  63 CALM      30.12R
BRISTOL        CLOUDY    40  31  70 CALM      30.14S
KNOXVILLE      CLOUDY    41  29  62 N3        30.18R
OAK RIDGE      CLOUDY    41  30  65 CALM      30.20R
CROSSVILLE     CLEAR     35  29  78 CALM      30.17S
NASHVILLE      CLOUDY    37  32  82 N3        30.25R
$$

...KEY TO REMARKS...
VSB - VISIBILITY IN MILES
WCI - WIND CHILL INDEX
HX  - HEAT INDEX

$$



USA.gov is the U.S. government's official web portal to all federal, state and local government web resources and services.